Du Bois, PA

3:07 PM EST on December 05, 2019 (GMT -0500)
Du Bois-Jefferson County

Weather History for KDUJ - October, 2019

Change the Weather History Date:

Wednesday, October 9, 2019

  Actual Average Record
Temperature  
Mean Temperature 52 °F 51 °F  
Max Temperature 66 °F 61 °F 80 °F (2018)
Min Temperature 39 °F 41 °F 28 °F (1987)
Degree Days  
Heating Degree Days 12 14  
Month to date heating degree days 77 114  
Since 1 July heating degree days 180 360  
Cooling Degree Days 0 0  
Month to date cooling degree days 23 0  
Year to date cooling degree days 430 360  
Growing Degree Days 2 (Base 50)    
Moisture  
Dew Point 39 °F    
Average Humidity 67    
Maximum Humidity 89    
Minimum Humidity 36    
Precipitation  
Precipitation 0.00 in 0.10 in 1.31 in (1975)
Month to date precipitation 1.84 0.94  
Year to date precipitation 38.24 34.18  
Sea Level Pressure  
Sea Level Pressure 30.26 in    
Wind  
Wind Speed 5 mph ()    
Max Wind Speed 14 mph    
Max Gust Speed 20 mph    
Visibility 10.0 miles    
Events      
T = Trace of Precipitation, MM = Missing Value Source: Averaged Metar Reports

Daily Weather History Graph

Daily Weather History Graph

Search for Another Location

Airport or City:

Astronomy

Oct. 09, 2019 Rise Set
Actual Time 7:20 AM EDT 6:44 PM EDT
Civil Twilight 6:52 AM EDT 7:12 PM EDT
Nautical Twilight 6:20 AM EDT 7:44 PM EDT
Astronomical Twilight 5:48 AM EDT 8:16 PM EDT
Moon 5:18 PM EDT (10/9) 3:02 AM EDT (10/9)
Length of Visible Light 12h 19m
Length of Day
11h 24m
Waxing Gibbous, 85% of the Moon is Illuminated
Oct 9
Waxing Gibbous
Oct 13
Full
Oct 21
Last Quarter
Oct 27
New
Nov 4
First Quarter

Hourly Weather History & Observations

Time (EDT) Temp. Windchill Dew Point Humidity Pressure Visibility Wind Dir Wind Speed Gust Speed Precip Events Conditions
12:53 AM 44.1 °F 42.5 °F 41.0 °F 89% 30.25 in 10.0 mi East 3.5 mph - N/A   Clear
1:53 AM 43.0 °F 40.3 °F 39.9 °F 89% 30.26 in 10.0 mi ENE 4.6 mph - N/A   Clear
2:53 AM 42.1 °F 39.2 °F 39.0 °F 89% 30.25 in 10.0 mi East 4.6 mph - N/A   Clear
3:53 AM 41.0 °F 37.1 °F 37.9 °F 89% 30.25 in 10.0 mi East 5.8 mph - N/A   Clear
4:53 AM 42.1 °F 38.4 °F 37.9 °F 85% 30.26 in 10.0 mi East 5.8 mph - N/A   Clear
5:53 AM 41.0 °F 37.1 °F 37.9 °F 89% 30.27 in 10.0 mi East 5.8 mph - N/A   Clear
6:53 AM 39.9 °F 35.1 °F 37.0 °F 89% 30.28 in 10.0 mi East 6.9 mph - N/A   Clear
7:53 AM 39.9 °F 35.8 °F 37.0 °F 89% 30.30 in 10.0 mi East 5.8 mph - N/A   Clear
8:53 AM 46.0 °F 43.9 °F 41.0 °F 83% 30.31 in 10.0 mi ENE 4.6 mph - N/A   Clear
9:53 AM 52.0 °F - 43.0 °F 71% 30.31 in 10.0 mi East 6.9 mph - N/A   Clear
10:53 AM 55.9 °F - 42.1 °F 60% 30.30 in 10.0 mi East 12.7 mph 17.3 mph N/A   Clear
11:53 AM 57.9 °F - 39.9 °F 51% 30.29 in 10.0 mi ESE 8.1 mph - N/A   Clear
12:53 PM 61.0 °F - 37.9 °F 42% 30.28 in 10.0 mi East 8.1 mph - N/A   Clear
1:53 PM 63.0 °F - 37.9 °F 40% 30.25 in 10.0 mi ESE 5.8 mph - N/A   Clear
2:53 PM 64.9 °F - 37.0 °F 36% 30.23 in 10.0 mi Variable 5.8 mph - N/A   Clear
3:53 PM 64.9 °F - 39.0 °F 39% 30.22 in 10.0 mi East 6.9 mph - N/A   Clear
4:53 PM 64.9 °F - 41.0 °F 42% 30.21 in 10.0 mi ENE 8.1 mph - N/A   Clear
5:53 PM 63.0 °F - 42.1 °F 46% 30.22 in 10.0 mi East 5.8 mph - N/A   Clear
6:53 PM 55.9 °F - 39.9 °F 55% 30.25 in 10.0 mi ESE 3.5 mph - N/A   Unknown
7:53 PM 53.1 °F - 39.9 °F 61% 30.26 in 10.0 mi East 4.6 mph - N/A   Clear
8:53 PM 51.1 °F - 37.9 °F 61% 30.26 in 10.0 mi East 5.8 mph - N/A   Clear
9:53 PM 50.0 °F - 37.9 °F 63% 30.27 in 10.0 mi ESE 6.9 mph - N/A   Clear
10:53 PM 46.0 °F 43.1 °F 37.9 °F 73% 30.27 in 10.0 mi East 5.8 mph - N/A   Clear
11:53 PM 46.0 °F 42.5 °F 37.9 °F 73% 30.27 in 10.0 mi East 6.9 mph - N/A   Clear